Showing default

COSMOS 86, 1584

Orbit data source: Space-Track

COSMOS 86, 1584 is a payload satellite owned by OKB-10 (CIS) in LEO that was launched on Sat, 18 Sep 1965 UTC via a KOSMOS 65S3 launch vehicle from the Tyuratam Missile And Space Complex (TTMTR). Payload-class satellites include a variety of spacecraft equipped with specific instruments for various scientific and technological missions. These include communications satellites like Starlink; space stations such as the ISS; scientific satellites like the Hubble; Earth observation satellites from companies like Planet Labs, Umbra, and HawkEye 360; GPS; miniature CubeSats for education and research; and military/defense satellites.

Loading next visibility...
Identifier
1584, 1965-073A
Orbit
LEO
Last TLE update
16 hours ago
Origin
Manufacturer
OKB-10
Mission
Defense Communications
Bus & Motor
STRELA-1 11F610, Unknown motor
Mass
50 kg wet, 50 kg dry
Launch date (UTC)
1965-09-18 (60 years ago)
Launch vehicle
KOSMOS 65S3
Launch site
Tyuratam Missile And Space Complex (TTMTR)
Object type
Payload
Rocket body
Debris
Shape & HBR
Poly, 0.8 m
Radar Cross Section
0.731 m², Medium (>0.1 m² and < 1m²)

Expand to show TLE details & history

TLE from 16 hours ago
0 COSMOS 86
1  1584U 65073A   25181.88318512 -.00000088  00000-0  51322-4 0  9996
2  1584  56.0602  12.2960 0214061 167.3390 309.4188 12.51911944733892
Epoch: 2025-06-30T21:11Z
TLE epoch observation values (Epoch: 2025-06-30T21:11:47.194Z)
Latitude
48.97221°
Longitude
-95.15184°
Altitude
1,358.171 km
Speed
7.232 km/s
True Right ascension
09h 27m 55s
True Declination
48° 48' 54"
Sunlit
Object was in daylight at epoch
Visualization orbit readout
Latitude
-42.61203°
Longitude
-8.61127°
Altitude
1,400.367 km
Speed
7.192 km/s
Apparent Right ascension
14h 06m 43s
Apparent Declination
-42° 41' 57"
Sunlit
Object is in full shadow
Visualization observer readout
Local Sidereal Time
00:47:27
Azimuth
252.935° W
Elevation
-74.894°
Doppler factor
1
Orbital elements
Apogee altitude
1,624.036 km
Perigee altitude
1,288.625 km
Semi-major axis
7,834.467 km
Eccentricity
0.02141
Inclination
56.0602°
RAAN
12.296°
Arg. of periapsis
167.339°
True anomaly
Unknown
Mean anomaly
309.4188°
Eccentric anomaly
Unknown
Mean motion
3.12989 °/min
Orbital period
115.02 mins
BSTAR
0.000051322
Loading maneuver chart data...
Loading SW <> Apogee altitude chart data...
Loading historical data...
Loading historical data...
Loading historical data...
Loading historical data...
Loading historical data...
Loading historical data...
Loading historical data...

COSMOS 86 Visibility forecast

Observer location: undefined°, undefined°

Span
Click to sort rows by Start time (UTC) header in descending order
Start Az.
Max El. time (UTC)
Max El. Az.
Max El.
End time (UTC)
End Az.
17 mins2025-07-01 13:54:34.254Z189.449° SSW2025-07-01 14:03:34.254Z118.667° SE34.197°2025-07-01 14:11:34.254Z56.37° ENE
16 mins2025-07-01 15:55:34.254Z243.786° WSW2025-07-01 16:03:34.254Z328.33° NNW41.581°2025-07-01 16:11:34.254Z41.587° NE
14 mins2025-07-01 17:58:34.254Z291.863° WNW2025-07-01 18:05:34.254Z349.595° N26.543°2025-07-01 18:12:34.254Z45.286° ENE
12 mins2025-07-01 20:02:34.254Z323.904° NNW2025-07-01 20:08:34.254Z19.531° NNE26.729°2025-07-01 20:14:34.254Z71.202° E
15 mins2025-07-01 22:02:34.254Z318.5° NNW2025-07-01 22:09:34.254Z28.772° NE42.823°2025-07-01 22:17:34.254Z122.985° SE
12 mins2025-07-02 00:03:34.254Z293.883° NW2025-07-02 00:09:34.254Z236.887° WSW28.002°2025-07-02 00:15:34.254Z183.074° SSW
12 mins2025-07-02 12:55:34.254Z160.261° S2025-07-02 13:01:34.254Z116.967° SE22.287°2025-07-02 13:07:34.254Z72.194° E
|